Tracking 27419 objects as of 9-Jun-2023
HD Live streaming from Space Station
objects crossing your sky now

FLOCK 4S 20

Track FLOCK 4S 20 now!
10-day predictions
FLOCK 4S 20 is classified as:


NORAD ID: 47540
Int'l Code: 2021-006EA
Perigee: 476.8 km
Apogee: 489.6 km
Inclination: 97.4 °
Period: 94.1 minutes
Semi major axis: 6854 km
RCS: Unknown
Launch date: January 24, 2021
Source: United States (US)
Launch site: AIR FORCE EASTERN TEST RANGE (AFETR)
Your satellite tracking list
Your tracking list is empty




NASA's NSSDC Master Catalog

Two Line Element Set (TLE):
1 47540U 21006EA  23160.10601993  .00012984  00000-0  45017-3 0  9994
2 47540  97.3923 219.4558 0009343 105.6272 254.6000 15.29905499130566
Source of the keplerian elements: AFSPC